W0DXV Weather Reports


Display with metric or nautical units.
time (UTC)temp
F
wind
direction
speed
MPH
gust
MPH
rain 1hr
in
rain 24hr
in
rain mn
in
humidity
%
barometer
mb
20260905232546 77 220 0.0 0.0 0.00 0.01 0.01 89 1007.3
20260905232042 78 229 0.0 0.0 0.00 0.01 0.01 88 1007.3
20260905231537 78 231 0.0 1.0 0.00 0.01 0.01 87 1007.2
20260905231033 79 246 1.0 1.0 0.00 0.01 0.01 85 1007.2
20260905230532 79 253 0.0 0.0 0.00 0.01 0.01 85 1007.1
20260905230031 79 253 0.0 0.0 0.00 0.01 0.01 84 1007.2
20260905225525 79 254 0.0 0.0 0.00 0.01 0.01 83 1007.3
20260905225021 79 249 0.0 0.0 0.00 0.01 0.01 83 1007.1
20260905224515 79 210 0.0 0.0 0.00 0.01 0.01 83 1007.1
20260905224015 80 208 0.0 1.0 0.00 0.01 0.01 81 1007.1
20260905223512 80 253 0.0 0.0 0.00 0.01 0.01 79 1007.1
20260905223007 79 254 0.0 0.0 0.00 0.01 0.01 80 1007.1
20260905222502 79 253 0.0 0.0 0.00 0.01 0.01 81 1007.0
20260905221957 79 291 0.0 1.0 0.00 0.01 0.01 81 1007.0
20260905221454 79 239 0.0 0.0 0.00 0.01 0.01 80 1007.1
20260905220950 79 241 0.0 1.0 0.00 0.01 0.01 80 1006.9
20260905220446 80 243 0.0 1.0 0.00 0.01 0.01 77 1006.9
20260905215944 80 241 0.0 1.0 0.00 0.01 0.01 78 1007.0
20260905215440 80 243 0.0 0.0 0.00 0.01 0.01 77 1007.0
20260905214937 80 243 0.0 0.0 0.00 0.01 0.01 78 1007.1
20260905214431 80 246 0.0 0.0 0.00 0.01 0.01 78 1007.3
20260905213926 79 294 2.0 2.0 0.00 0.01 0.01 78 1007.4
20260905213422 79 241 1.0 1.0 0.00 0.01 0.01 80 1007.4
20260905212917 79 237 0.0 1.0 0.00 0.01 0.01 78 1007.6
20260905212412 79 205 0.0 0.0 0.00 0.01 0.01 80 1007.8
20260905211911 78 262 1.0 1.0 0.00 0.01 0.01 80 1007.9
20260905211407 78 265 1.0 1.0 0.00 0.01 0.01 82 1007.8
20260905210903 78 206 0.0 1.0 0.00 0.01 0.01 83 1007.9
20260905210357 78 201 0.0 1.0 0.00 0.01 0.01 83 1007.9
20260905205856 78 237 1.0 1.0 0.00 0.01 0.01 84 1008.0
20260905205351 78 236 0.0 1.0 0.00 0.01 0.01 84 1008.0
20260905204850 78 237 0.0 0.0 0.00 0.01 0.01 84 1007.7
20260905204347 78 243 1.0 1.0 0.00 0.01 0.01 85 1007.6
20260905203845 77 226 0.0 1.0 0.00 0.01 0.01 85 1007.1
20260905203341 77 225 0.0 0.0 0.00 0.01 0.01 85 1007.4
20260905202837 77 225 0.0 0.0 0.00 0.01 0.01 83 1007.3
20260905202331 78 252 1.0 1.0 0.00 0.01 0.01 82 1007.3
20260905201827 77 161 1.0 1.0 0.00 0.01 0.01 85 1007.4
20260905201322 76 227 0.0 0.0 0.00 0.01 0.01 85 1007.9
20260905200816 76 211 0.0 1.0 0.00 0.01 0.01 86 1007.8
20260905200313 75 243 0.0 1.0 0.00 0.01 0.01 87 1008.4
20260905195810 75 250 0.0 1.0 0.00 0.01 0.01 90 1008.2
20260905195307 74 258 0.0 0.0 0.00 0.01 0.01 90 1008.0
20260905194802 73 209 0.0 1.0 0.00 0.01 0.01 91 1008.1
20260905194300 73 214 1.0 1.0 0.00 0.01 0.01 91 1007.9
20260905193754 73 232 0.0 1.0 0.00 0.01 0.01 90 1008.4
20260905193249 72 251 0.0 0.0 0.00 0.01 0.01 91 1008.3
20260905192739 72 253 0.0 1.0 0.00 0.01 0.01 92 1008.3
20260905192236 72 229 0.0 0.0 0.00 0.01 0.01 91 1008.3
20260905191735 72 256 0.0 0.0 0.00 0.01 0.01 91 1008.4
20260905191233 72 240 0.0 0.0 0.00 0.01 0.01 91 1008.1
20260905190732 72 259 1.0 1.0 0.00 0.01 0.01 91 1007.9
20260905190231 73 241 1.0 1.0 0.00 0.01 0.01 91 1007.8
20260905185730 73 205 1.0 1.0 0.00 0.01 0.01 91 1007.0
20260905185225 73 249 0.0 0.0 0.00 0.01 0.01 92 1007.1
20260905184719 73 226 0.0 1.0 0.00 0.01 0.01 90 1007.6
20260905184218 74 246 0.0 0.0 0.07 0.01 0.01 86 1008.0
20260905183718 76 223 0.0 1.0 0.07 0.01 0.01 80 1007.9
20260905183214 78 322 3.0 5.0 0.00 0.00 0.00 71 1008.2
20260905182712 79 225 3.0 5.0 0.00 0.00 0.00 66 1009.3
20260905182207 80 280 4.0 6.0 0.00 0.00 0.00 65 1009.5
20260905181703 82 177 5.0 6.0 0.00 0.00 0.00 66 1009.5
20260905181201 89 191 6.0 8.0 0.00 0.00 0.00 57 1009.3
20260905180656 95 223 2.0 2.0 0.00 0.00 0.00 57 1008.3
20260905180151 95 160 2.0 2.0 0.00 0.00 0.00 57 1007.9
20260905175650 94 258 1.0 1.0 0.00 0.00 0.00 59 1008.2
20260905175146 95 96 2.0 2.0 0.00 0.00 0.00 61 1008.3
20260905174641 97 241 0.0 0.0 0.00 0.00 0.00 56 1008.1
20260905174137 98 229 0.0 1.0 0.00 0.00 0.00 54 1008.1
20260905173633 96 221 1.0 1.0 0.00 0.00 0.00 54 1007.9
20260905173128 96 158 1.0 2.0 0.00 0.00 0.00 57 1008.2
20260905172627 95 294 1.0 1.0 0.00 0.00 0.00 54 1008.5
20260905172122 95 228 1.0 1.0 0.00 0.00 0.00 58 1008.5
20260905171618 96 155 2.0 3.0 0.00 0.00 0.00 53 1008.8
20260905171114 96 277 3.0 3.0 0.00 0.00 0.00 53 1008.9
20260905170610 96 220 2.0 2.0 0.00 0.00 0.00 52 1008.9
20260905170105 97 222 1.0 1.0 0.00 0.00 0.00 54 1008.8
20260905165559 96 248 1.0 1.0 0.00 0.00 0.00 54 1009.0
20260905165054 95 261 1.0 1.0 0.00 0.00 0.00 53 1008.9
20260905164549 94 197 2.0 2.0 0.00 0.00 0.00 55 1009.0
20260905164044 95 249 0.0 0.0 0.00 0.00 0.00 61 1008.8
20260905163540 97 50 1.0 1.0 0.00 0.00 0.00 53 1009.0
20260905163036 96 275 1.0 2.0 0.00 0.00 0.00 55 1009.2
20260905162532 95 228 0.0 1.0 0.00 0.00 0.00 57 1009.2
20260905162027 95 250 0.0 1.0 0.00 0.00 0.00 60 1009.2
20260905161526 95 161 1.0 2.0 0.00 0.00 0.00 57 1009.5
20260905161024 95 228 0.0 1.0 0.00 0.00 0.00 58 1009.5
20260905160517 94 240 0.0 1.0 0.00 0.00 0.00 59 1009.5
20260905160012 94 257 2.0 2.0 0.00 0.00 0.00 60 1009.5
20260905155512 94 282 0.0 1.0 0.00 0.00 0.00 63 1009.6
20260905155010 95 202 1.0 2.0 0.00 0.00 0.00 59 1009.6
20260905154506 93 221 1.0 1.0 0.00 0.00 0.00 59 1009.9
20260905154001 93 229 0.0 1.0 0.00 0.00 0.00 61 1009.7
20260905153457 93 234 1.0 2.0 0.00 0.00 0.00 61 1009.4
20260905152951 92 235 1.0 1.0 0.00 0.00 0.00 64 1009.6
20260905152451 92 236 1.0 1.0 0.00 0.00 0.00 64 1009.8
20260905151946 91 288 1.0 1.0 0.00 0.00 0.00 62 1009.8
20260905151441 91 288 1.0 1.0 0.00 0.00 0.00 65 1009.8
20260905150936 91 302 1.0 1.0 0.00 0.00 0.00 65 1009.8
20260905150437 89 228 1.0 1.0 0.00 0.00 0.00 66 1009.8
20260905145933 89 348 1.0 1.0 0.00 0.00 0.00 68 1009.9
20260905145427 88 220 1.0 1.0 0.00 0.00 0.00 69 1009.9
20260905144927 89 227 1.0 1.0 0.00 0.00 0.00 69 1010.0
20260905144422 87 233 0.0 0.0 0.00 0.00 0.00 72 1010.0
20260905143921 88 238 0.0 1.0 0.00 0.00 0.00 70 1010.0
20260905143415 88 223 0.0 0.0 0.00 0.00 0.00 71 1010.0
20260905142914 87 258 0.0 0.0 0.00 0.00 0.00 70 1010.1
20260905142413 86 249 0.0 1.0 0.00 0.00 0.00 73 1009.8
20260905141910 85 232 1.0 1.0 0.00 0.00 0.00 75 1009.9
20260905141404 85 178 0.0 0.0 0.00 0.00 0.00 75 1009.9
20260905140900 85 186 0.0 0.0 0.00 0.00 0.00 75 1009.7
20260905140356 83 186 0.0 1.0 0.00 0.00 0.00 79 1010.0
20260905135854 83 185 0.0 1.0 0.00 0.00 0.00 81 1010.0
20260905135350 82 188 0.0 0.0 0.00 0.00 0.00 80 1009.9
20260905134846 81 174 0.0 0.0 0.00 0.00 0.00 83 1009.9
20260905134344 81 174 0.0 0.0 0.00 0.00 0.00 83 1010.1
20260905133839 81 174 0.0 0.0 0.00 0.00 0.00 82 1010.2
20260905133334 80 174 0.0 0.0 0.00 0.00 0.00 83 1010.2
20260905132833 79 174 0.0 0.0 0.00 0.00 0.00 85 1010.1
20260905132329 79 174 0.0 0.0 0.00 0.00 0.00 86 1010.1
20260905131829 79 174 0.0 0.0 0.00 0.00 0.00 86 1010.0
20260905131324 78 174 0.0 0.0 0.00 0.00 0.00 86 1010.1
20260905130820 78 174 0.0 0.0 0.00 0.00 0.00 87 1010.1
20260905130318 79 174 0.0 0.0 0.00 0.00 0.00 87 1010.5
20260905125814 79 174 0.0 0.0 0.00 0.00 0.00 86 1010.3
20260905125309 78 174 0.0 0.0 0.00 0.00 0.00 88 1010.1
20260905124805 79 174 0.0 0.0 0.00 0.00 0.00 87 1010.2
20260905124301 79 174 0.0 0.0 0.00 0.00 0.00 86 1010.3
20260905123755 78 174 0.0 0.0 0.00 0.00 0.00 88 1010.0
20260905123252 78 174 0.0 0.0 0.00 0.00 0.00 89 1010.3
20260905122746 78 174 0.0 0.0 0.00 0.00 0.00 87 1010.2
20260905122240 78 174 0.0 0.0 0.00 0.00 0.00 87 1010.0
20260905121736 78 174 0.0 0.0 0.00 0.00 0.00 88 1010.2
20260905121232 76 173 0.0 0.0 0.00 0.00 0.00 91 1010.1
20260905120731 76 173 0.0 0.0 0.00 0.00 0.00 92 1010.1
20260905120230 75 174 0.0 0.0 0.00 0.00 0.00 96 1010.3
20260905115725 74 173 0.0 0.0 0.00 0.00 0.00 98 1010.0
20260905115219 73 173 0.0 0.0 0.00 0.00 0.00 99 1010.1
20260905114714 72 173 0.0 0.0 0.00 0.00 0.00 99 1010.1
20260905114212 72 173 0.0 0.0 0.00 0.00 0.00 99 1010.0
20260905113706 71 173 0.0 0.0 0.00 0.00 0.00 99 1009.9
20260905113202 71 178 0.0 0.0 0.00 0.00 0.00 99 1009.9
20260905112702 70 178 0.0 0.0 0.00 0.00 0.00 99 1009.6
20260905112158 70 178 0.0 0.0 0.00 0.00 0.00 99 1009.6
20260905111658 70 178 0.0 0.0 0.00 0.00 0.00 99 1009.5
20260905111157 70 178 0.0 0.0 0.00 0.00 0.00 99 1009.5
20260905110656 70 178 0.0 0.0 0.00 0.00 0.00 99 1009.5
20260905110152 71 178 0.0 0.0 0.00 0.00 0.00 99 1009.5
20260905105647 71 178 0.0 0.0 0.00 0.00 0.00 99 1009.2
20260905105146 71 178 0.0 0.0 0.00 0.00 0.00 99 1009.3
20260905104641 71 178 0.0 0.0 0.00 0.00 0.00 99 1009.4
20260905104137 71 178 0.0 0.0 0.00 0.00 0.00 99 1009.4
20260905103632 71 178 0.0 0.0 0.00 0.00 0.00 99 1009.3
20260905103128 71 178 1.0 1.0 0.00 0.00 0.00 99 1009.1
20260905102623 71 178 0.0 0.0 0.00 0.00 0.00 99 1009.3
20260905102120 71 178 0.0 0.0 0.00 0.00 0.00 99 1009.4
20260905101618 71 177 0.0 0.0 0.00 0.00 0.00 99 1009.1
20260905101116 71 177 0.0 0.0 0.00 0.00 0.00 99 1009.1
20260905100613 71 177 0.0 0.0 0.00 0.00 0.00 99 1009.0
20260905100108 71 177 0.0 0.0 0.00 0.00 0.00 99 1008.8
20260905095601 71 177 0.0 0.0 0.00 0.00 0.00 99 1009.0
20260905095057 71 177 0.0 0.0 0.00 0.00 0.00 99 1009.1
20260905094551 72 177 0.0 0.0 0.00 0.00 0.00 99 1008.8
20260905094050 72 177 0.0 0.0 0.00 0.00 0.00 99 1008.8
20260905093545 72 177 0.0 0.0 0.00 0.00 0.00 99 1008.9
20260905093042 72 177 0.0 0.0 0.00 0.00 0.00 99 1008.9
20260905092541 72 177 0.0 0.0 0.00 0.00 0.00 99 1008.8
20260905092037 72 185 0.0 0.0 0.00 0.00 0.00 99 1008.4
20260905091531 71 185 0.0 0.0 0.00 0.00 0.00 99 1008.7
20260905091031 71 185 0.0 0.0 0.00 0.00 0.00 99 1009.1
20260905090525 71 185 0.0 0.0 0.00 0.00 0.00 99 1008.9
20260905090020 71 185 0.0 0.0 0.00 0.00 0.00 99 1009.0
20260905085518 71 185 0.0 0.0 0.00 0.00 0.00 99 1008.8
20260905085014 72 185 0.0 0.0 0.00 0.00 0.00 99 1008.9
20260905084508 72 185 0.0 0.0 0.00 0.00 0.00 99 1009.0
20260905084003 72 185 0.0 1.0 0.00 0.00 0.00 99 1009.1
20260905083458 72 185 0.0 0.0 0.00 0.00 0.00 99 1009.2
20260905082954 72 185 0.0 0.0 0.00 0.00 0.00 99 1009.1
20260905082450 72 185 0.0 0.0 0.00 0.00 0.00 99 1009.1
20260905081945 72 185 0.0 0.0 0.00 0.00 0.00 99 1009.0
20260905081440 72 185 0.0 0.0 0.00 0.00 0.00 99 1009.1
20260905080939 72 185 0.0 1.0 0.00 0.00 0.00 99 1009.3
20260905080434 72 185 0.0 0.0 0.00 0.00 0.00 98 1009.4
20260905075933 72 185 0.0 0.0 0.00 0.00 0.00 98 1009.6
20260905075428 72 186 0.0 0.0 0.00 0.00 0.00 98 1009.6
20260905074927 72 186 1.0 1.0 0.00 0.00 0.00 98 1009.4
20260905074422 73 186 0.0 0.0 0.00 0.00 0.00 98 1009.5
20260905073918 73 186 0.0 0.0 0.00 0.00 0.00 98 1009.6
20260905073413 73 186 0.0 0.0 0.00 0.00 0.00 98 1009.7
20260905072908 73 186 0.0 0.0 0.00 0.00 0.00 98 1009.8
20260905072403 73 186 0.0 0.0 0.00 0.00 0.00 98 1009.7
20260905071859 73 186 0.0 0.0 0.00 0.00 0.00 98 1009.8
20260905071355 73 186 0.0 0.0 0.00 0.00 0.00 98 1009.9
20260905070855 73 186 0.0 0.0 0.00 0.00 0.00 98 1009.8
20260905070351 73 186 0.0 0.0 0.00 0.00 0.00 97 1010.1
20260905065851 73 185 0.0 0.0 0.00 0.00 0.00 97 1010.0
20260905065349 74 185 0.0 0.0 0.00 0.00 0.00 97 1010.1
20260905064844 74 185 0.0 1.0 0.00 0.00 0.00 97 1010.1
20260905064340 73 185 1.0 1.0 0.00 0.00 0.00 97 1010.3
20260905063838 74 199 0.0 0.0 0.00 0.00 0.00 97 1010.6
20260905063334 74 200 0.0 0.0 0.00 0.00 0.00 97 1010.1
20260905062830 74 200 0.0 0.0 0.00 0.00 0.00 97 1010.4
20260905062325 74 199 0.0 0.0 0.00 0.00 0.00 98 1010.6
20260905061820 74 198 1.0 1.0 0.00 0.00 0.00 98 1010.8
20260905061320 74 139 1.0 1.0 0.00 0.00 0.00 98 1010.6
20260905060814 74 224 1.0 1.0 0.00 0.00 0.00 98 1010.9
20260905060311 74 225 2.0 2.0 0.00 0.00 0.00 98 1010.6
20260905055810 74 208 0.0 0.0 0.00 0.00 0.00 98 1010.9
20260905055306 74 208 0.0 0.0 0.00 0.00 0.00 98 1010.7
20260905054759 74 208 0.0 0.0 0.00 0.00 0.00 98 1010.6
20260905054256 74 208 0.0 0.0 0.00 0.00 0.00 98 1010.7
20260905053755 74 208 0.0 0.0 0.00 0.00 0.00 98 1010.7
20260905053250 74 208 0.0 0.0 0.00 0.00 0.00 98 1010.7
20260905052750 74 207 0.0 0.0 0.00 0.00 0.00 98 1010.8
20260905052245 74 212 0.0 0.0 0.00 0.00 0.00 97 1010.8
20260905051744 74 212 0.0 0.0 0.00 0.00 0.00 97 1010.9
20260905051241 74 212 0.0 0.0 0.00 0.00 0.00 97 1010.7
20260905050738 74 212 0.0 0.0 0.00 0.00 0.00 97 1010.9
20260905050234 74 212 0.0 0.0 0.00 0.00 0.00 97 1011.0
20260905045733 74 212 0.0 0.0 0.00 0.00 0.00 97 1010.9
20260905045229 74 212 0.0 0.0 0.00 0.00 0.00 97 1011.1
20260905044724 74 212 0.0 0.0 0.00 0.00 0.00 97 1011.4
20260905044219 75 212 0.0 0.0 0.00 0.00 0.00 97 1011.5
20260905043718 75 212 0.0 0.0 0.00 0.00 0.00 97 1011.2
20260905043212 75 212 0.0 0.0 0.00 0.00 0.00 96 1011.3
20260905042707 75 212 0.0 0.0 0.00 0.00 0.00 96 1011.2
20260905042206 75 212 1.0 1.0 0.00 0.00 0.00 96 1011.2
20260905041702 75 211 0.0 0.0 0.00 0.00 0.00 96 1011.2
20260905041157 75 210 1.0 1.0 0.00 0.00 0.00 96 1011.2
20260905040652 75 229 0.0 0.0 0.00 0.00 0.00 96 1011.2
20260905040151 75 229 0.0 0.0 0.00 0.00 0.00 96 1011.0
20260905035651 75 229 0.0 0.0 0.00 0.00 0.00 96 1010.9
20260905035148 75 229 0.0 0.0 0.00 0.00 0.00 96 1011.1
20260905034643 75 229 0.0 0.0 0.00 0.00 0.00 96 1010.7
20260905034143 75 229 0.0 0.0 0.00 0.00 0.00 96 1010.9
20260905033642 75 229 0.0 0.0 0.00 0.00 0.00 96 1010.9
20260905033138 76 229 1.0 1.0 0.00 0.00 0.00 95 1010.8
20260905032638 76 228 0.0 0.0 0.00 0.00 0.00 95 1010.7
20260905032132 76 228 0.0 1.0 0.00 0.00 0.00 95 1010.8
20260905031628 76 239 0.0 1.0 0.00 0.00 0.00 95 1010.7
20260905031124 76 239 0.0 0.0 0.00 0.00 0.00 95 1010.6
20260905030618 76 253 0.0 0.0 0.00 0.00 0.00 95 1010.7
20260905030114 76 253 0.0 0.0 0.00 0.00 0.00 95 1010.6
20260905025608 76 253 0.0 0.0 0.00 0.00 0.00 95 1010.7
20260905025104 76 253 0.0 0.0 0.00 0.00 0.00 95 1010.7
20260905024600 76 253 0.0 0.0 0.00 0.00 0.00 94 1010.7
20260905024055 76 253 0.0 0.0 0.00 0.00 0.00 94 1010.6
20260905023550 77 253 0.0 0.0 0.00 0.00 0.00 94 1010.7
20260905023044 77 253 0.0 0.0 0.00 0.00 0.00 93 1010.5
20260905022544 77 253 0.0 0.0 0.00 0.00 0.00 93 1010.6
20260905022039 77 250 0.0 0.0 0.00 0.00 0.00 93 1010.8
20260905021539 77 214 0.0 0.0 0.00 0.00 0.00 93 1010.9
20260905021034 77 219 0.0 0.0 0.00 0.00 0.00 93 1010.9
20260905020533 77 219 0.0 0.0 0.00 0.00 0.00 93 1010.7
20260905020029 77 219 0.0 0.0 0.00 0.00 0.00 92 1010.6
20260905015526 77 219 0.0 1.0 0.00 0.00 0.00 93 1010.7
20260905015022 77 220 0.0 0.0 0.00 0.00 0.00 92 1010.3
20260905014516 78 220 0.0 0.0 0.00 0.00 0.00 92 1010.5
20260905014012 78 220 0.0 0.0 0.00 0.00 0.00 92 1010.2
20260905013508 78 220 0.0 0.0 0.00 0.00 0.00 91 1010.4
20260905013004 78 219 0.0 0.0 0.00 0.00 0.00 91 1010.4
20260905012458 79 219 1.0 1.0 0.00 0.00 0.00 90 1010.2
20260905011955 79 259 0.0 0.0 0.00 0.00 0.00 89 1010.3
20260905011450 79 231 0.0 0.0 0.00 0.00 0.00 89 1010.4
20260905010946 79 211 0.0 0.0 0.00 0.00 0.00 89 1010.5
20260905010441 79 211 1.0 1.0 0.00 0.00 0.00 88 1010.6
20260905005937 80 210 0.0 1.0 0.00 0.00 0.00 88 1010.5
20260905005433 80 210 0.0 0.0 0.00 0.00 0.00 88 1010.5
20260905004933 80 210 0.0 1.0 0.00 0.00 0.00 87 1010.6
20260905004428 81 206 0.0 0.0 0.00 0.00 0.00 85 1010.5
20260905003922 81 125 1.0 2.0 0.00 0.00 0.00 85 1010.4
20260905003419 81 252 0.0 1.0 0.00 0.00 0.00 84 1010.7
20260905002914 81 269 0.0 1.0 0.00 0.00 0.00 84 1010.7
20260905002413 81 251 0.0 0.0 0.00 0.00 0.00 84 1010.6
20260905001908 82 251 0.0 0.0 0.00 0.00 0.00 84 1010.8
20260905001403 83 252 0.0 0.0 0.00 0.00 0.00 82 1010.8
20260905000858 83 253 0.0 0.0 0.00 0.00 0.00 79 1010.7
20260905000355 84 253 0.0 0.0 0.00 0.00 0.00 78 1010.8
20260904235849 84 277 0.0 0.0 0.00 0.00 0.00 77 1010.4
20260904235344 85 222 0.0 0.0 0.00 0.00 0.00 79 1010.5
20260904234844 85 228 0.0 0.0 0.00 0.00 0.00 73 1010.7
20260904234339 85 234 0.0 0.0 0.00 0.00 0.00 72 1010.8
20260904233834 86 244 0.0 0.0 0.00 0.00 0.00 72 1010.6
20260904233330 86 266 1.0 1.0 0.00 0.00 0.00 73 1010.5